This demonstration page uses our WeatherBlox Daily Observations layout. Learn more.

Hourly Observations for February 5, 2018

Temp ( °F °C ) Dew Point ( °F °C ) Humidity (%) Winds ( mph kmh ) Pressure ( in mb ) Visibility ( mi km ) Precip ( " mm )
12:15 am 00:15 Clear 4 -15.4 0 -18 81 81 S 8 13 30.36 1028 10 16.0934 0 0
12:35 am 00:35 Clear 4 -15.6 0 -18 82 82 S 8 13 30.36 1028 10 16.0934 0 0
12:55 am 00:55 Clear 4 -15.5 0 -17.8 83 83 S 9 15 30.33 1027 10 16.0934 0 0
1:15 am 01:15 Clear 4 -15.3 1 -17.5 83 83 S 9 15 30.33 1027 10 16.0934 0 0
1:35 am 01:35 Clear 7 -14.1 2 -16.6 82 82 S 14 22 30.27 1025 10 16.0934 0 0
1:55 am 01:55 Clear 7 -14 2 -16.5 82 82 S 18 30 30.27 1025 10 16.0934 0 0
2:15 am 02:15 Clear 7 -13.7 3 -16.2 82 82 S 16 26 30.24 1024 10 16.0934 0 0
2:35 am 02:35 Clear 8 -13.5 3 -16 82 82 S 16 26 30.24 1024 10 16.0934 0 0
2:55 am 02:55 Clear 8 -13.5 3 -16.1 81 81 S 14 22 30.21 1023 10 16.0934 0 0
3:15 am 03:15 Clear 8 -13.5 3 -16 82 82 S 17 28 30.18 1022 10 16.0934 0 0
3:35 am 03:35 Clear 8 -13.2 4 -15.7 82 82 S 15 24 30.15 1021 10 16.0934 0 0
3:55 am 03:55 Clear 9 -13 4 -15.5 82 82 S 15 24 30.15 1021 10 16.0934 0 0
4:15 am 04:15 Clear 10 -12.5 5 -15.2 80 80 S 20 31 30.09 1019 10 16.0934 0 0
4:35 am 04:35 Clear 9 -12.6 5 -15.1 82 82 S 21 33 30.09 1019 7 11.26538 0 0
4:55 am 04:55 Clear 10 -12.5 5 -15 82 82 S 16 26 30.06 1018 10 16.0934 0 0
5:15 am 05:15 Partly Cloudy 10 -12.2 5 -14.9 81 81 S 18 30 30.09 1019 10 16.0934 0 0
5:35 am 05:35 Clear 10 -12 6 -14.5 82 82 S 14 22 30.06 1018 10 16.0934 0 0
5:55 am 05:55 Partly Cloudy 11 -11.9 6 -14.5 81 81 S 17 28 30.06 1018 10 16.0934 0 0
6:15 am 06:15 Mostly Cloudy 11 -11.7 6 -14.2 82 82 S 15 24 30.06 1018 10 16.0934 0 0
6:35 am 06:35 Cloudy 12 -11.3 7 -13.8 82 82 S 14 22 30.03 1017 10 16.0934 0 0
6:55 am 06:55 Mostly Cloudy 12 -10.9 8 -13.5 81 81 S 14 22 30.09 1019 10 16.0934 0 0
7:15 am 07:15 Mostly Cloudy 13 -10.5 8 -13.3 80 80 S 12 19 30.03 1017 10 16.0934 0 0
7:35 am 07:35 Cloudy 13 -10.5 9 -13 82 82 S 16 26 30 1016 7 11.26538 0 0
7:55 am 07:55 Cloudy with Mist and Fog 13 -10.3 9 -12.7 83 83 S 30 48 29.97 1015 4 6.43736 0 0
8:15 am 08:15 Cloudy 14 -10.2 9 -12.8 81 81 S 16 26 29.97 1015 10 16.0934 0 0
8:35 am 08:35 Cloudy 15 -9.7 10 -12.5 80 80 S 10 17 30 1016 10 16.0934 0 0
8:55 am 08:55 Cloudy 15 -9.6 10 -12.2 82 82 S 15 24 30 1016 10 16.0934 0 0
9:15 am 09:15 Cloudy 15 -9.5 10 -12 82 82 S 16 26 29.97 1015 10 16.0934 0 0
9:35 am 09:35 Cloudy 16 -9 11 -11.6 82 82 S 14 22 29.97 1015 10 16.0934 0 0
9:55 am 09:55 Cloudy 17 -8.5 11 -11.6 79 79 SSW 17 28 30 1016 10 16.0934 0 0
10:15 am 10:15 Cloudy 17 -8.1 11 -11.6 76 76 SSW 14 22 30 1016 10 16.0934 0 0
10:35 am 10:35 Cloudy 18 -7.6 12 -11.1 76 76 SSW 13 20 30 1016 10 16.0934 0 0
10:55 am 10:55 Cloudy 19 -7.2 13 -10.8 76 76 SW 10 17 30.03 1017 10 16.0934 0 0
11:15 am 11:15 Cloudy 19 -7 13 -10.5 76 76 SW 8 13 30.03 1017 10 16.0934 0 0
11:35 am 11:35 Cloudy 20 -6.5 13 -10.5 74 74 W 9 15 30.06 1018 10 16.0934 0 0
11:55 am 11:55 Cloudy with Light Snow 21 -6.2 14 -10 75 75 WNW 8 13 30.06 1018 7 11.26538 0 0
12:15 pm 12:15 Cloudy 22 -5.7 16 -8.9 78 78 NW 15 24 30.06 1018 10 16.0934 0 0
12:35 pm 12:35 Cloudy 23 -5.2 18 -8 81 81 NNW 14 22 30.09 1019 10 16.0934 0 0
12:55 pm 12:55 Cloudy 23 -5.2 17 -8.3 79 79 N 23 37 30.09 1019 7 11.26538 0 0
1:15 pm 13:15 Cloudy 23 -5 17 -8.1 79 79 N 28 44 30.12 1020 7 11.26538 0 0
1:35 pm 13:35 Cloudy 23 -5 17 -8.3 78 78 N 23 37 30.12 1020 10 16.0934 0 0
1:55 pm 13:55 Cloudy 24 -4.7 18 -7.8 79 79 N 21 33 30.15 1021 10 16.0934 0 0
2:15 pm 14:15 Cloudy 24 -4.2 19 -7.1 80 80 N 22 35 30.15 1021 10 16.0934 0 0
2:35 pm 14:35 Cloudy 24 -4.3 18 -7.6 78 78 N 18 30 30.15 1021 10 16.0934 0 0
2:55 pm 14:55 Mostly Cloudy 24 -4.5 18 -7.9 77 77 N 22 35 30.15 1021 10 16.0934 0 0
3:15 pm 15:15 Mostly Cloudy 23 -5 17 -8.2 79 79 N 17 28 30.18 1022 10 16.0934 0 0
3:35 pm 15:35 Partly Cloudy 23 -5 17 -8.5 77 77 N 17 28 30.18 1022 10 16.0934 0 0
3:55 pm 15:55 Sunny 23 -5.2 15 -9.2 74 74 N 22 35 30.21 1023 10 16.0934 0 0
4:15 pm 16:15 Sunny 22 -5.5 15 -9.6 73 73 N 22 35 30.21 1023 10 16.0934 0 0
4:35 pm 16:35 Sunny 22 -5.7 14 -10 72 72 N 15 24 30.27 1025 10 16.0934 0 0
4:55 pm 16:55 Sunny 21 -6 13 -10.8 69 69 N 17 28 30.3 1026 10 16.0934 0 0
5:15 pm 17:15 Sunny 20 -6.5 11 -11.5 68 68 N 17 28 30.3 1026 10 16.0934 0 0
5:35 pm 17:35 Sunny 19 -7 12 -11.3 72 72 N 15 24 30.3 1026 10 16.0934 0 0
5:55 pm 17:55 Sunny 19 -7.5 10 -12 70 70 N 14 22 30.3 1026 10 16.0934 0 0
6:15 pm 18:15 Clear 18 -7.9 10 -12.4 70 70 N 15 24 30.3 1026 10 16.0934 0 0
6:35 pm 18:35 Clear 16 -8.9 9 -12.6 75 75 N 8 13 30.36 1028 10 16.0934 0 0
6:55 pm 18:55 Clear 16 -9.1 8 -13.1 73 73 N 10 17 30.39 1029 10 16.0934 0 0
7:15 pm 19:15 Clear 14 -9.8 8 -13.6 74 74 N 9 15 30.39 1029 10 16.0934 0 0
7:35 pm 19:35 Clear 12 -11.1 6 -14.4 77 77 N 9 15 30.42 1030 10 16.0934 0 0
7:55 pm 19:55 Clear 12 -11 6 -14.5 76 76 N 8 13 30.42 1030 10 16.0934 0 0
8:15 pm 20:15 Clear 12 -11.2 5 -15 74 74 N 12 19 30.42 1030 10 16.0934 0 0
8:35 pm 20:35 Clear 11 -11.8 4 -15.5 74 74 NNE 10 17 30.42 1030 10 16.0934 0 0
8:55 pm 20:55 Clear 10 -12 3 -16 72 72 N 6 9 30.45 1031 10 16.0934 0 0
9:15 pm 21:15 Clear 9 -12.8 3 -16.3 75 75 N 8 13 30.45 1031 10 16.0934 0 0
9:35 pm 21:35 Clear 8 -13.3 2 -16.5 77 77 N 9 15 30.48 1032 10 16.0934 0 0
9:55 pm 21:55 Clear 8 -13.6 2 -16.8 77 77 N 6 9 30.48 1032 10 16.0934 0 0
10:15 pm 22:15 Clear 8 -13.5 2 -16.9 76 76 Calm 30.5 1033 10 16.0934 0 0
10:35 pm 22:35 Clear 8 -13.5 2 -16.8 76 76 N 5 7 30.5 1033 10 16.0934 0 0
10:55 pm 22:55 Clear 7 -14 1 -17.5 75 75 NW 5 7 30.53 1034 10 16.0934 0 0
11:15 pm 23:15 Clear 6 -14.2 1 -17.1 79 79 NNW 7 11 30.53 1034 10 16.0934 0 0
11:35 pm 23:35 Clear 7 -13.7 2 -16.6 79 79 Calm 30.56 1035 10 16.0934 0 0
11:55 pm 23:55 Clear 7 -13.7 2 -16.5 80 80 WNW 3 6 30.56 1035 10 16.0934 0 0

Powered by AerisWeather